Regional Weather Roundup
Issued by NWS

Home | Current Version | Previous Version | Text Only | Print | Product List | Glossary Off
Versions: 1 2 3 4 5 6 7 8 9 10 11 12 13 14 15 16 17 18 19 20 21 22 23 24 25 26 27 28 29 30 31 32 33 34 35 36 37 38 39 40 41 42 43 44 45 46 47 48 49 50

000
ASUS43 KIND 032209
RWRIN

WEATHER ROUNDUP FOR INDIANA
NATIONAL WEATHER SERVICE INDIANAPOLIS IN
600 PM EDT THU SEP 03 2015

NOTE: "FAIR" INDICATES FEW OR NO CLOUDS BELOW 12,000 FEET WITH NO
SIGNIFICANT WEATHER AND/OR OBSTRUCTIONS TO VISIBILITY.

* - STATION DOES NOT REPORT WEATHER SUCH AS PRECIPITATION OR FOG.

+ - STATION NOT QUALITY CONTROLLED BY THE NATIONAL WEATHER SERVICE.
    USE DATA WITH CAUTION...ESPECIALLY DEWPOINT AND RELATIVE
    HUMIDITY OBSERVATIONS.

INZ001>003-010>013-019-020-032300-
NORTHWEST INDIANA

CITY           SKY/WX    TMP DP  RH WIND       PRES   REMARKS
GARY /AIRPORT/ MOSUNNY   91  63  38 W16       29.89F
KNOX *+          N/A    N/A N/A N/A MISG        N/A
LA PORTE +     SUNNY     90  69  50 W10       29.91S
MICHIGAN CITY+ SUNNY     88  68  51 W6        29.89S
MONTICELLO +   MOSUNNY   89  69  51 SW8G16    29.91S
RENSSELAER +   SUNNY     90  68  48 SW8       29.91F
VALPARAISO     MOSUNNY   89  69  51 W10       29.90F

$$

LMZ046-743>745-032300-
SOUTHERN LAKE MICHIGAN

STATION/POSITION TIME  TEMP    WIND        PRES    WAVE
                       AIR SEA DIR/SP/G            HT
                 (UTC) (F)     (DEG/KT/KT) (MB)    (FT)
BURNS HARBOR     2100   84     260/ 11/ 14 1012.2
MICHIGAN CITY    2100   83     220/  6/  7   N/A
5NW MICH CITY    2200   80 76  260/  4/  6   N/A     0

$$

INZ004-005-014>016-021>024-032300-
NORTH CENTRAL INDIANA

CITY           SKY/WX    TMP DP  RH WIND       PRES   REMARKS
ELKHART        MOSUNNY   86  66  51 W9        29.90F
GOSHEN         SUNNY     88  68  51 W14       29.90F
LOGANSPORT +   SUNNY     88  54  31 W10       29.92F
PERU/GRISSOM   SUNNY     90  65  43 W13       29.91F
ROCHESTER +    MOSUNNY   90  64  43 W7        29.91F
SOUTH BEND     SUNNY     88  68  51 W9        29.90F
WARSAW +       SUNNY     88  66  48 W12       29.91F

$$

INZ006>009-017-018-025>027-032300-
NORTHEAST INDIANA

CITY           SKY/WX    TMP DP  RH WIND       PRES   REMARKS
ANGOLA *+      SUNNY     88  70  55 W8        29.91R
AUBURN +       SUNNY     88  63  42 SW7       29.91F
FORT WAYNE     MOSUNNY   88  67  49 W15       29.91F
HUNTINGTON +   SUNNY     89  60  38 W6        29.91F

$$

INZ028-029-035-036-043>045-051>053-032300-
WEST CENTRAL INDIANA

CITY           SKY/WX    TMP DP  RH WIND       PRES   REMARKS
CRAWFORDSVL +  SUNNY     87  59  38 SW5       29.94S
GREENCASTLE +  MOSUNNY   88  63  42 S5        29.95S
LAFAYETTE      SUNNY     89  63  41 W10       29.91F
TERRE HAUTE    SUNNY     91  64  40 W7        29.93F

$$

INZ030>032-037>040-046>048-054>057-064-065-032300-
CENTRAL INDIANA

CITY           SKY/WX    TMP DP  RH WIND       PRES   REMARKS
COLUMBUS       SUNNY     86  63  45 SW9       29.94F
FRANKFORT +    MOSUNNY   89  68  49 SW8       29.95F
GREENWOOD *+   SUNNY     88  61  40 W8        29.96S
INDIANAPOLIS   MOSUNNY   89  65  44 SW14      29.94F
-EAGLE CREEK   MOSUNNY   88  66  48 VRB5      29.93F
KOKOMO *+      SUNNY     90  66  45 W10       29.92F
MARION +       SUNNY     87  52  30 W10       29.94S
MT COMFORT *+  SUNNY     90  50  25 W12       29.94F
SHELBYVILLE    SUNNY     90  64  42 SW9       29.94F
ZIONSVILLE +   SUNNY     88  65  45 SW9       29.95S

$$

INZ033-034-041-042-049-050-058-059-032300-
EAST CENTRAL INDIANA

CITY           SKY/WX    TMP DP  RH WIND       PRES   REMARKS
MUNCIE         SUNNY     86  67  52 W7        29.93F

$$

INZ060-061-067>069-081>083-085>088-032300-
SOUTHWEST INDIANA

CITY           SKY/WX    TMP DP  RH WIND       PRES   REMARKS
EVANSVILLE     SUNNY     91  65  41 N3        29.94F
HUNTINGBURG *+ SUNNY     90  64  43 SW5       29.95S
WASHINGTON +   MOSUNNY   91  55  29 SW3       29.93F

$$

INZ062-063-066-070>080-084-089>092-032300-
SOUTH CENTRAL AND SOUTHEAST INDIANA

CITY           SKY/WX    TMP DP  RH WIND       PRES   REMARKS
BLOOMINGTON    SUNNY     89  66  46 SW7       29.95F
MADISON *+     SUNNY     90  59  35 CALM      29.97F
NORTH VERNON + SUNNY     91  59  33 CALM      29.95F
SEYMOUR +      SUNNY     95  64  36 SW7       29.94F HX  97

$$




USA.gov is the U.S. government's official web portal to all federal, state and local government web resources and services.